This is the latest recevied weather packets stored in our database for station/object VR2MW-X. If no packets are shown the sender has not sent any weather packets the latest 10 day(s).
| Time | Temp. | Humidity | Pressure | Rain* | Wind** | Luminosity | Snow |
|---|---|---|---|---|---|---|---|
| 1778028212 | 22.78° C | 82% | 1013.8 hPa | - | - | - | - |
| 1778027602 | 22.78° C | 82% | 1013.6 hPa | - | - | - | - |
| 1778026992 | 23.89° C | 81% | 1013.6 hPa | - | - | - | - |
| 1778026381 | 22.78° C | 81% | 1013.7 hPa | - | - | - | - |
| 1778025771 | 22.78° C | 84% | 1013.6 hPa | - | - | - | - |
| 1778025161 | 22.78° C | 83% | 1013.6 hPa | - | - | - | - |
| 1778024550 | 22.22° C | 85% | 1013.5 hPa | - | - | - | - |
| 1778023940 | 22.22° C | 87% | 1013.7 hPa | - | - | - | - |
| 1778023329 | 22.22° C | 85% | 1013.6 hPa | - | - | - | - |
| 1778022107 | 22.22° C | 86% | 1013.3 hPa | - | - | - | - |
| 1778021497 | 22.22° C | 86% | 1013.2 hPa | - | - | - | - |
| 1778020276 | 21.11° C | 88% | 1013.1 hPa | - | - | - | - |
| 1778019664 | 21.11° C | 92% | 1012.8 hPa | - | - | - | - |
| 1778019054 | 21.11° C | 89% | 1012.7 hPa | - | - | - | - |
| 1778018443 | 21.11° C | 91% | 1012.6 hPa | - | - | - | - |
| 1778017833 | 21.11° C | 90% | 1012.6 hPa | - | - | - | - |
| 1778017222 | 21.11° C | 90% | 1012.6 hPa | - | - | - | - |
| 1778016612 | 21.11° C | 88% | 1012.6 hPa | - | - | - | - |
| 1778015999 | 21.11° C | 90% | 1012.6 hPa | - | - | - | - |
| 1778015389 | 21.11° C | 88% | 1012.6 hPa | - | - | - | - |
| 1778014779 | 22.22° C | 88% | 1012.5 hPa | - | - | - | - |
| 1778014168 | 22.22° C | 86% | 1012.3 hPa | - | - | - | - |
| 1778013558 | 22.22° C | 86% | 1012.3 hPa | - | - | - | - |
| 1778012947 | 22.22° C | 86% | 1012.2 hPa | - | - | - | - |
| 1778012337 | 21.11° C | 89% | 1012.3 hPa | - | - | - | - |
* Rain since midnight (hover to see other rain measurements)
** Current wind speed in m/s (hover to see current wind gust speed)